Weather History for Paducah, KY

Change the Weather History Date:

Sunday, December 9, 2012

  Actual Average Record
Temperature  
Mean Temperature 56 °F 39 °F  
Max Temperature 65 °F 48 °F 66 °F (1952)
Min Temperature 47 °F 30 °F 7 °F (1995)
Degree Days  
Heating Degree Days 9 26  
Month to date heating degree days 78 223  
Since 1 July heating degree days 970 1000  
Cooling Degree Days 0 0  
Month to date cooling degree days 1 0  
Year to date cooling degree days 1978 1542  
Growing Degree Days 6 (Base 50)    
Moisture  
Dew Point 55 °F    
Average Humidity 89    
Maximum Humidity 93    
Minimum Humidity 84    
Precipitation  
Precipitation 1.21 in 0.16 in 2.03 in (1961)
Month to date precipitation 1.79 1.41  
Year to date precipitation 27.93 45.90  
Snow  
Snow 0.00 in 0.00 in T in (2008)
Month to date snowfall 0.0 0.4  
Since 1 July snowfall 0.0 0.5  
Snow Depth 0.00 in    
Sea Level Pressure  
Sea Level Pressure 29.80 in    
Wind  
Wind Speed 9 mph (SSW)    
Max Wind Speed 23 mph    
Max Gust Speed 30 mph    
Visibility 6 miles    
Events Rain , Thunderstorm    
T = Trace of Precipitation, MM = Missing Value Source: NWS Daily Summary

Daily Weather History Graph

Daily Weather History Graph

Search for Another Location

Airport:

Trip Planner

Search our weather history database for the weather conditions in past years. The results will help you decide how hot, cold, wet, or windy it might be!

Date:

Astronomy

Dec. 09, 2012 Rise Set
Actual Time 6:57 AM CST 4:38 PM CST
Civil Twilight 6:28 AM CST 5:07 PM CST
Nautical Twilight 5:55 AM CST 5:39 PM CST
Astronomical Twilight 5:24 AM CST 6:11 PM CST
Moon 2:34 AM CST (12/9) 1:41 PM CST (12/9)
Length of Visible Light 10h 38m
Length of Day
9h 40m
Waning Crescent, 18% of the Moon is Illuminated
Dec 9
Waning Crescent
Dec 13
New
Dec 19
First Quarter
Dec 28
Full
Jan 4
Last Quarter

Hourly Weather History & Observations

Time (CST) Temp. Dew Point Humidity Pressure Visibility Wind Dir Wind Speed Gust Speed Precip Events Conditions
12:53 AM 51.1 °F 48.9 °F 92% 29.91 in 4.0 mi ESE 8.1 mph - N/A   Overcast
1:53 AM 51.1 °F 48.9 °F 92% 29.90 in 4.0 mi ESE 6.9 mph - N/A   Overcast
2:31 AM 51.8 °F 50.0 °F 94% 29.88 in 2.5 mi ESE 8.1 mph - 0.01 in Rain , Thunderstorm Rain
2:42 AM 51.8 °F 50.0 °F 94% 29.90 in 1.2 mi Variable 3.5 mph - 0.09 in Rain , Thunderstorm Heavy Thunderstorms and Rain
2:53 AM 51.1 °F 50.0 °F 96% 29.86 in 1.2 mi ESE 9.2 mph - 0.26 in Rain , Thunderstorm Heavy Thunderstorms and Rain
3:00 AM 51.8 °F 50.0 °F 94% 29.86 in 2.0 mi SE 10.4 mph - 0.01 in Rain , Thunderstorm Light Thunderstorms and Rain
3:11 AM 51.8 °F 50.0 °F 94% 29.87 in 2.5 mi SE 12.7 mph - 0.03 in Rain , Thunderstorm Rain
3:21 AM 51.8 °F 50.0 °F 94% 29.86 in 3.0 mi SE 10.4 mph - 0.05 in Rain , Thunderstorm Light Rain
3:32 AM 51.8 °F 50.0 °F 94% 29.84 in 3.0 mi ESE 13.8 mph - 0.06 in Rain Rain
3:53 AM 52.0 °F 51.1 °F 97% 29.82 in 4.0 mi SE 10.4 mph - 0.08 in   Mostly Cloudy
4:24 AM 53.6 °F 51.8 °F 94% 29.84 in 4.0 mi NE 4.6 mph - N/A   Mostly Cloudy
4:37 AM 53.6 °F 51.8 °F 94% 29.84 in 3.0 mi ENE 3.5 mph - N/A   Mostly Cloudy
4:47 AM 53.6 °F 51.8 °F 94% 29.83 in 2.5 mi ENE 3.5 mph - 0.00 in Rain Light Rain
4:53 AM 53.1 °F 52.0 °F 96% 29.83 in 2.5 mi ENE 4.6 mph - 0.02 in Rain Light Rain
5:31 AM 51.8 °F 51.8 °F 100% 29.87 in 1.8 mi WSW 3.5 mph - 0.01 in Rain , Thunderstorm Rain
5:39 AM 51.8 °F 51.8 °F 100% 29.87 in 1.5 mi Calm Calm - 0.03 in Rain , Thunderstorm Rain
5:53 AM 53.1 °F 52.0 °F 96% 29.86 in 2.0 mi Calm Calm - 0.07 in Rain , Thunderstorm Light Rain
6:00 AM 53.6 °F 51.8 °F 94% 29.86 in 2.0 mi Calm Calm - 0.01 in Rain Light Rain
6:53 AM 54.0 °F 53.1 °F 97% 29.84 in 3.0 mi SSE 6.9 mph - 0.01 in   Mostly Cloudy
7:53 AM 55.9 °F 54.0 °F 93% 29.84 in 10.0 mi SSE 8.1 mph - 0.02 in   Mostly Cloudy
8:53 AM 57.9 °F 55.0 °F 90% 29.83 in 10.0 mi SSE 6.9 mph - N/A   Scattered Clouds
9:53 AM 61.0 °F 57.9 °F 90% 29.85 in 10.0 mi South 10.4 mph 16.1 mph N/A   Scattered Clouds
10:06 AM 62.6 °F 57.2 °F 82% 29.86 in 10.0 mi SSW 5.8 mph - N/A   Mostly Cloudy
10:35 AM 62.6 °F 59.0 °F 88% 29.85 in 10.0 mi SSW 6.9 mph - N/A   Overcast
10:53 AM 62.1 °F 59.0 °F 90% 29.84 in 10.0 mi SSW 8.1 mph - N/A   Mostly Cloudy
11:38 AM 62.6 °F 59.0 °F 88% 29.84 in 10.0 mi SSW 10.4 mph 19.6 mph 0.00 in Rain Light Rain
11:53 AM 62.1 °F 59.0 °F 90% 29.83 in 4.0 mi SSW 8.1 mph 17.3 mph 0.01 in Rain Rain
12:03 PM 62.6 °F 59.0 °F 88% 29.83 in 2.5 mi SSW 10.4 mph - 0.02 in Rain Rain
12:22 PM 60.8 °F 59.0 °F 94% 29.80 in 7.0 mi South 8.1 mph - 0.07 in Rain Light Rain
12:53 PM 63.0 °F 61.0 °F 93% 29.78 in 10.0 mi South 8.1 mph - 0.07 in   Scattered Clouds
1:37 PM 64.4 °F 60.8 °F 88% 29.78 in 10.0 mi South 4.6 mph - N/A   Mostly Cloudy
1:53 PM 64.0 °F 60.1 °F 87% 29.76 in 10.0 mi SSW 8.1 mph - N/A   Overcast
2:09 PM 64.4 °F 60.8 °F 88% 29.76 in 10.0 mi South 9.2 mph - N/A   Overcast
2:53 PM 64.0 °F 60.1 °F 87% 29.75 in 9.0 mi SSW 10.4 mph 19.6 mph 0.00 in Rain Light Rain
3:06 PM 64.4 °F 60.8 °F 88% 29.75 in 7.0 mi South 13.8 mph 20.7 mph 0.00 in Rain Light Rain
3:53 PM 64.0 °F 60.1 °F 87% 29.74 in 9.0 mi SSW 9.2 mph 19.6 mph 0.01 in   Overcast
4:12 PM 64.4 °F 60.8 °F 88% 29.74 in 10.0 mi SSW 9.2 mph 18.4 mph N/A   Overcast
4:31 PM 62.6 °F 60.8 °F 94% 29.73 in 9.0 mi South 9.2 mph 19.6 mph N/A   Mostly Cloudy
4:53 PM 63.0 °F 60.1 °F 90% 29.73 in 10.0 mi South 11.5 mph 19.6 mph N/A   Partly Cloudy
5:36 PM 62.6 °F 60.8 °F 94% 29.73 in 3.0 mi SSW 6.9 mph - 0.12 in Rain , Thunderstorm Thunderstorms and Rain
5:45 PM 62.6 °F 60.8 °F 94% 29.73 in 9.0 mi SSW 8.1 mph - 0.12 in Rain , Thunderstorm Thunderstorms and Rain
5:53 PM 63.0 °F 61.0 °F 93% 29.72 in 10.0 mi SSW 6.9 mph - 0.12 in Rain , Thunderstorm Thunderstorms and Rain
6:24 PM 64.4 °F 60.8 °F 88% 29.73 in 2.0 mi WSW 16.1 mph 21.9 mph 0.12 in Rain , Thunderstorm Thunderstorms and Rain
6:31 PM 64.4 °F 60.8 °F 88% 29.74 in 5.0 mi West 12.7 mph - 0.13 in Rain , Thunderstorm Thunderstorms and Rain
6:38 PM 62.6 °F 60.8 °F 94% 29.76 in 1.5 mi WNW 15.0 mph 21.9 mph 0.22 in Rain , Thunderstorm Thunderstorms and Rain
6:45 PM 62.6 °F 60.8 °F 94% 29.73 in 1.0 mi WSW 11.5 mph 26.5 mph 0.43 in Rain , Thunderstorm Thunderstorms and Rain
6:53 PM 62.1 °F 57.9 °F 86% 29.73 in 4.0 mi West 16.1 mph 29.9 mph 0.50 in Rain , Thunderstorm Thunderstorms and Rain
7:00 PM 62.6 °F 59.0 °F 88% 29.74 in 6.0 mi West 9.2 mph - 0.02 in Rain , Thunderstorm Thunderstorms and Rain
7:21 PM 60.8 °F 57.2 °F 88% 29.74 in 10.0 mi WSW 13.8 mph 21.9 mph 0.03 in   Mostly Cloudy
7:53 PM 60.1 °F 55.9 °F 86% 29.76 in 10.0 mi WSW 9.2 mph - 0.03 in   Mostly Cloudy
8:00 PM 59.0 °F 57.2 °F 94% 29.76 in 10.0 mi WNW 6.9 mph - N/A   Overcast
8:17 PM 57.2 °F 55.4 °F 94% 29.77 in 10.0 mi NW 16.1 mph 23.0 mph N/A Rain Light Rain
8:53 PM 54.0 °F 52.0 °F 93% 29.79 in 7.0 mi NNW 11.5 mph - 0.01 in   Overcast
9:15 PM 53.6 °F 51.8 °F 94% 29.78 in 8.0 mi North 9.2 mph - N/A   Overcast
9:36 PM 53.6 °F 51.8 °F 94% 29.78 in 8.0 mi North 8.1 mph - 0.00 in Rain Light Rain
9:53 PM 52.0 °F 48.9 °F 89% 29.79 in 10.0 mi North 13.8 mph - 0.00 in   Overcast
10:05 PM 51.8 °F 48.2 °F 88% 29.79 in 10.0 mi North 15.0 mph - N/A   Overcast
10:12 PM 51.8 °F 48.2 °F 88% 29.79 in 10.0 mi North 15.0 mph - N/A   Overcast
10:53 PM 50.0 °F 46.9 °F 89% 29.81 in 9.0 mi North 13.8 mph 20.7 mph N/A   Overcast
11:53 PM 48.0 °F 45.0 °F 89% 29.83 in 7.0 mi North 12.7 mph - N/A   Overcast